CW9454 Weather Reports


Display with metric or nautical units.
time (UTC)temp
F
wind
direction
speed
MPH
gust
MPH
rain 1hr
in
rain 24hr
in
rain mn
in
humidity
%
barometer
mb
20260903125021 75 214 0.0 2.0 0.00 0.32 0.00 96 1017.5
20260903124016 75 215 0.0 1.0 0.00 0.32 0.00 96 1017.5
20260903123050 75 215 0.0 1.0 0.00 0.32 0.00 96 1017.8
20260903122043 75 216 0.0 0.0 0.00 0.32 0.00 96 1018.1
20260903121015 75 216 0.0 0.0 0.00 0.32 0.00 96 1018.4
20260903120022 75 216 0.0 0.0 0.00 0.32 0.00 96 1018.6
20260903115029 75 216 0.0 0.0 0.00 0.32 0.00 96 1018.8
20260903114022 75 216 0.0 0.0 0.00 0.32 0.00 96 1019.0
20260903113036 75 216 0.0 0.0 0.00 0.32 0.00 96 1018.9
20260903112030 75 216 0.0 0.0 0.00 0.32 0.00 96 1018.6
20260903111024 75 216 0.0 1.0 0.00 0.32 0.00 96 1018.1
20260903110033 75 218 0.0 0.0 0.00 0.32 0.00 96 1018.2
20260903105026 75 219 0.0 0.0 0.00 0.32 0.00 96 1017.9
20260903104021 75 218 0.0 0.0 0.00 0.32 0.00 96 1017.6
20260903103034 75 218 0.0 0.0 0.00 0.32 0.00 96 1017.6
20260903102048 75 218 0.0 0.0 0.00 0.32 0.00 96 1017.6
20260903101041 74 218 0.0 0.0 0.00 0.32 0.00 96 1017.5
20260903100026 74 213 0.0 3.0 0.00 0.32 0.00 96 1017.2
20260903095039 74 193 0.0 0.0 0.00 0.32 0.00 96 1016.5
20260903094013 74 193 0.0 0.0 0.00 0.32 0.00 96 1016.5
20260903093028 74 193 0.0 0.0 0.00 0.32 0.00 96 1016.6
20260903092041 74 193 0.0 0.0 0.00 0.32 0.00 96 1016.8
20260903091014 74 193 0.0 0.0 0.00 0.32 0.00 96 1016.8
20260903090020 74 193 0.0 0.0 0.00 0.32 0.00 96 1017.1
20260903085016 74 193 0.0 0.0 0.00 0.32 0.00 96 1016.9
20260903084048 74 193 0.0 0.0 0.00 0.32 0.00 96 1016.8
20260903083023 74 193 0.0 0.0 0.00 0.32 0.00 96 1017.0
20260903082018 74 193 0.0 0.0 0.00 0.32 0.00 96 1017.1
20260903081032 74 193 0.0 0.0 0.00 0.32 0.00 96 1017.0
20260903080018 74 193 0.0 0.0 0.00 0.32 0.00 96 1016.9
20260903075033 74 193 0.0 0.0 0.00 0.32 0.00 96 1016.9
20260903074026 74 193 0.0 0.0 0.00 0.32 0.00 96 1017.0
20260903073020 74 193 0.0 0.0 0.00 0.32 0.00 96 1017.3
20260903072033 74 193 0.0 0.0 0.00 0.32 0.00 96 1017.3
20260903071018 74 193 0.0 0.0 0.00 0.32 0.00 95 1017.1
20260903070054 74 193 0.0 0.0 0.00 0.32 0.00 95 1016.7
20260903065026 74 193 0.0 0.0 0.00 0.32 0.00 95 1016.7
20260903064022 74 193 0.0 0.0 0.00 0.32 0.00 95 1016.6
20260903063036 74 193 0.0 0.0 0.00 0.32 0.00 95 1016.5
20260903062028 73 193 0.0 0.0 0.00 0.32 0.00 95 1016.6
20260903061042 73 193 0.0 0.0 0.00 0.32 0.00 95 1016.7
20260903060029 73 193 0.0 0.0 0.00 0.32 0.00 95 1016.6
20260903055015 73 193 0.0 0.0 0.00 0.32 0.00 95 1016.7
20260903054038 73 193 0.0 0.0 0.00 0.32 0.00 95 1016.8
20260903053023 73 193 0.0 0.0 0.00 0.32 0.00 95 1016.9
20260903052015 73 193 0.0 0.0 0.00 0.32 0.00 95 1017.1
20260903051029 73 193 0.0 0.0 0.00 0.32 0.00 95 1017.0
20260903050036 73 193 0.0 0.0 0.00 0.32 0.00 95 1016.9
20260903045027 73 193 0.0 0.0 0.00 0.32 0.00 94 1017.1
20260903044022 73 193 0.0 0.0 0.00 0.32 0.00 94 1017.3
20260903043015 73 193 0.0 0.0 0.00 0.32 0.00 94 1017.3
20260903042026 73 193 0.0 0.0 0.00 0.32 0.00 94 1017.6
20260903041019 73 193 0.0 0.0 0.00 0.32 0.00 94 1017.7
20260903040026 73 193 0.0 0.0 0.00 0.32 0.00 94 1018.0
20260903035018 73 193 0.0 0.0 0.00 0.32 0.32 94 1018.0
20260903034033 73 193 0.0 0.0 0.00 0.32 0.32 94 1017.9
20260903033026 73 193 0.0 0.0 0.00 0.32 0.32 94 1017.7
20260903032039 73 193 0.0 0.0 0.00 0.32 0.32 94 1017.9
20260903031023 73 193 0.0 0.0 0.00 0.32 0.32 93 1017.6
20260903030039 73 193 0.0 0.0 0.00 0.32 0.32 93 1017.8
20260903025053 73 193 0.0 0.0 0.00 0.32 0.32 93 1017.7
20260903024027 73 193 0.0 0.0 0.00 0.32 0.32 93 1018.0
20260903023019 73 193 0.0 0.0 0.00 0.32 0.32 93 1018.3
20260903022033 72 193 0.0 0.0 0.00 0.32 0.32 92 1018.3
20260903021018 72 193 0.0 0.0 0.00 0.32 0.32 92 1018.0
20260903020033 72 193 0.0 0.0 0.00 0.32 0.32 92 1017.9
20260903015046 72 193 0.0 0.0 0.00 0.32 0.32 92 1018.0
20260903014019 73 193 0.0 0.0 0.00 0.32 0.32 91 1018.0
20260903013034 73 193 0.0 0.0 0.00 0.32 0.32 92 1017.9
20260903012016 73 193 0.0 0.0 0.00 0.32 0.32 92 1017.7
20260903011039 73 193 0.0 0.0 0.00 0.32 0.32 91 1017.6
20260903010045 73 193 0.0 0.0 0.00 0.32 0.32 91 1017.4
20260903005014 73 193 0.0 0.0 0.00 0.32 0.32 91 1017.5
20260903004022 73 193 0.0 0.0 0.00 0.32 0.32 90 1017.9
20260903003035 73 193 0.0 0.0 0.00 0.32 0.32 90 1017.6
20260903002028 74 193 0.0 0.0 0.00 0.32 0.32 90 1017.5
20260903001014 74 193 0.0 0.0 0.00 0.32 0.32 90 1017.6
20260903000026 74 193 0.0 0.0 0.00 0.32 0.32 90 1017.8
20260902235039 74 193 0.0 0.0 0.00 0.32 0.32 90 1017.7
20260902234034 75 193 0.0 0.0 0.00 0.32 0.32 90 1017.6
20260902233048 75 193 0.0 0.0 0.00 0.32 0.32 90 1017.5
20260902232040 75 193 0.0 0.0 0.00 0.32 0.32 90 1017.6
20260902231025 75 193 0.0 0.0 0.00 0.32 0.32 90 1017.7
20260902230041 75 193 0.0 0.0 0.00 0.32 0.32 91 1018.2
20260902225014 75 193 0.0 0.0 0.00 0.32 0.32 91 1017.8
20260902224027 75 193 0.0 0.0 0.00 0.32 0.32 92 1017.6
20260902223041 76 193 0.0 0.0 0.00 0.32 0.32 93 1017.6
20260902222025 75 193 0.0 0.0 0.00 0.32 0.32 93 1017.6
20260902221020 75 193 0.0 0.0 0.00 0.32 0.32 93 1017.3
20260902220028 75 193 0.0 0.0 0.00 0.32 0.32 93 1017.7
20260902215050 74 193 0.0 0.0 0.00 0.32 0.32 94 1017.9
20260902214015 74 193 0.0 0.0 0.00 0.32 0.32 93 1018.2
20260902213027 74 193 0.0 0.0 0.00 0.32 0.32 93 1018.4
20260902212021 74 193 0.0 0.0 0.00 0.32 0.32 93 1018.3
20260902211016 74 193 0.0 0.0 0.00 0.32 0.32 93 1018.4
20260902210040 74 193 0.0 0.0 0.00 0.32 0.32 93 1018.3
20260902205013 74 193 0.0 0.0 0.00 0.32 0.32 93 1018.1
20260902204027 74 193 0.0 1.0 0.00 0.32 0.32 93 1018.1
20260902203041 74 192 0.0 0.0 0.00 0.32 0.32 93 1017.9
20260902202033 74 192 0.0 2.0 0.00 0.32 0.32 93 1018.3
20260902201035 74 191 0.0 2.0 0.00 0.32 0.32 93 1018.3
20260902200022 74 194 0.0 5.0 0.00 0.32 0.32 93 1018.1
20260902195035 74 223 0.0 3.0 0.00 0.32 0.32 93 1017.4
20260902194028 74 312 0.0 0.0 0.00 0.32 0.32 93 1017.7
20260902193022 74 318 0.0 0.0 0.00 0.32 0.32 93 1017.5
20260902192035 73 318 0.0 0.0 0.01 0.32 0.32 92 1017.6
20260902191027 73 318 0.0 0.0 0.01 0.32 0.32 92 1017.6
20260902190014 73 318 0.0 0.0 0.01 0.32 0.32 91 1018.1
20260902185028 73 318 0.0 0.0 0.01 0.32 0.32 91 1018.3
20260902184021 73 319 0.0 0.0 0.02 0.32 0.32 90 1018.3
20260902183034 73 319 0.0 0.0 0.07 0.32 0.32 89 1018.3
20260902182030 74 319 0.0 0.0 0.29 0.31 0.31 89 1018.2
20260902181016 74 319 0.0 0.0 0.31 0.31 0.31 88 1019.6
20260902180017 75 319 0.0 0.0 0.31 0.31 0.31 86 1020.5
20260902175039 75 319 0.0 0.0 0.31 0.31 0.31 84 1020.9
20260902174023 76 319 0.0 3.0 0.30 0.30 0.30 83 1020.5
20260902173016 78 311 1.0 11.0 0.23 0.23 0.23 81 1021.6
20260902172030 80 278 5.0 21.0 0.00 0.00 0.00 76 1022.7
20260902171024 83 315 2.0 9.0 0.00 0.00 0.00 80 1021.4
20260902170029 82 77 0.0 0.0 0.00 0.00 0.00 80 1019.8
20260902165023 82 77 0.0 0.0 0.00 0.00 0.00 80 1019.7
20260902164037 82 77 0.0 0.0 0.00 0.00 0.00 81 1019.4
20260902163030 81 77 0.0 1.0 0.00 0.00 0.00 82 1019.4
20260902162043 81 79 0.0 0.0 0.00 0.00 0.00 82 1019.5
20260902161016 81 79 0.0 0.0 0.00 0.00 0.00 82 1019.2
20260902160021 80 79 0.0 0.0 0.00 0.00 0.00 83 1019.1
20260902155037 80 78 0.0 4.0 0.00 0.00 0.00 84 1018.9
20260902154032 79 79 0.0 1.0 0.00 0.00 0.00 85 1018.9
20260902153025 79 80 0.0 1.0 0.00 0.00 0.00 85 1018.9
20260902152019 78 79 0.0 2.0 0.00 0.00 0.00 86 1019.1
20260902151013 78 76 1.0 3.0 0.00 0.00 0.00 86 1019.0
20260902150040 77 76 0.0 3.0 0.00 0.00 0.00 86 1019.2
20260902145013 77 76 0.0 0.0 0.00 0.00 0.00 87 1019.4
20260902144027 77 76 0.0 0.0 0.00 0.00 0.00 88 1019.5
20260902143020 77 76 0.0 0.0 0.00 0.00 0.00 87 1019.2
20260902142014 77 76 0.0 0.0 0.00 0.00 0.00 88 1019.2
20260902141023 77 76 0.0 1.0 0.00 0.00 0.00 89 1019.2
20260902140029 77 76 0.0 0.0 0.00 0.00 0.00 89 1018.8
20260902135022 76 70 0.0 2.0 0.00 0.00 0.00 89 1018.7
20260902134036 77 65 0.0 2.0 0.00 0.00 0.00 90 1018.5
20260902133022 76 61 0.0 0.0 0.00 0.00 0.00 90 1018.8
20260902132016 76 61 0.0 3.0 0.00 0.00 0.00 90 1019.0
20260902131101 77 61 0.0 3.0 0.00 0.00 0.00 91 1018.9
20260902130027 77 61 0.0 1.0 0.00 0.00 0.00 91 1018.7